This demonstration page uses our WeatherBlox Daily Observations layout. Learn more.

Left ArrowRight Arrow

39.51506, -84.39828

Hourly Observations for April 16, 2016

Temp ( °F °C ) Dew Point ( °F °C ) Humidity (%) Winds ( mph kmh ) Pressure ( in mb ) Visibility ( mi km ) Precip ( " mm )
12:15 am 00:15 Clear 55 12.5 48 9 79 79 undefined N/A 30.24 1024 10 16 N/A
12:35 am 00:35 Clear 51 10.7 46 7.5 81 81 undefined N/A 30.24 1024 10 16 N/A
12:55 am 00:55 Clear 50 10.2 45 7.1 81 81 undefined N/A 30.24 1024 10 16 N/A
1:15 am 01:15 Clear 52 11 46 7.7 80 80 undefined N/A 30.24 1024 10 16 N/A
1:35 am 01:35 Clear 49 9.6 44 6.8 83 83 undefined N/A 30.24 1024 10 16 N/A
1:55 am 01:55 Clear 49 9.6 43 6.3 80 80 undefined N/A 30.24 1024 10 16 N/A
2:15 am 02:15 Clear 49 9.6 44 6.5 81 81 undefined N/A 30.24 1024 10 16 N/A
2:35 am 02:35 Clear 49 9.6 45 7 84 84 undefined N/A 30.24 1024 10 16 N/A
2:55 am 02:55 Clear 49 9.6 44 6.7 82 82 undefined N/A 30.24 1024 10 16 N/A
3:15 am 03:15 Clear 49 9.6 45 7.1 85 85 undefined N/A 30.24 1024 10 16 N/A
3:35 am 03:35 Clear 49 9.6 44 6.9 83 83 undefined N/A 30.24 1024 10 16 N/A
3:55 am 03:55 Clear 49 9.6 45 7 84 84 NE 3 6 30.24 1024 10 16 N/A
4:15 am 04:15 Clear 49 9.6 45 7 84 84 N N/A 30.27 1025 10 16 N/A
4:35 am 04:35 Clear 49 9.3 44 6.9 85 85 undefined N/A 30.27 1025 10 16 N/A
4:55 am 04:55 Clear 47 8.2 43 5.9 86 86 undefined N/A 30.27 1025 10 16 N/A
5:15 am 05:15 Clear 47 8.2 42 5.8 85 85 undefined N/A 30.27 1025 10 16 N/A
5:35 am 05:35 Clear 47 8.2 42 5.8 85 85 undefined N/A 30.27 1025 10 16 N/A
5:55 am 05:55 Clear 47 8.2 42 5.6 84 84 undefined N/A 30.27 1025 10 16 N/A
6:15 am 06:15 Clear 46 7.6 42 5.3 86 86 N N/A 30.27 1025 10 16 N/A
6:35 am 06:35 Clear 44 6.4 40 4.2 86 86 N N/A 30.30 1026 10 16 N/A
6:55 am 06:55 Clear 44 6.4 40 4.2 86 86 undefined N/A 30.30 1026 10 16 N/A
7:15 am 07:15 Sunny 43 6.2 39 4.1 87 87 undefined N/A 30.33 1027 10 16 N/A
7:40 am 07:40 Sunny 44 6.4 40 4.2 86 86 undefined N/A 30.36 1028 10 16 N/A
7:55 am 07:55 Sunny 47 8.2 43 6 86 86 undefined N/A 30.33 1027 10 16 N/A
8:15 am 08:15 Sunny 49 9.6 45 7 84 84 undefined N/A 30.33 1027 10 16 N/A
8:35 am 08:35 Sunny 54 12.1 46 7.9 76 76 undefined N/A 30.33 1027 10 16 N/A
8:55 am 08:55 Sunny 55 12.8 45 7.1 69 69 undefined N/A 30.33 1027 10 16 N/A
9:15 am 09:15 Sunny 60 15.3 45 7 58 58 N N/A 30.33 1027 10 16 N/A
9:35 am 09:35 Sunny 61 16.2 43 6.1 51 51 undefined N/A 30.33 1027 10 16 N/A
9:55 am 09:55 Sunny 64 17.6 38 3.1 38 38 undefined N/A 30.33 1027 10 16 N/A
10:15 am 10:15 Sunny 66 18.8 37 2.9 35 35 undefined N/A 30.30 1026 10 16 N/A
10:35 am 10:35 Sunny 69 20.8 37 3 31 31 SSW 3 6 30.30 1026 10 16 N/A
10:55 am 10:55 Sunny 69 20.8 37 2.6 30 30 undefined N/A 30.30 1026 10 16 N/A
11:15 am 11:15 Sunny 69 20.8 35 1.9 29 29 SW 3 6 30.30 1026 10 16 N/A
11:35 am 11:35 Sunny 69 20.8 34 1.2 27 27 undefined N/A 30.30 1026 10 16 N/A
11:55 am 11:55 Sunny 72 22.1 39 3.8 30 30 undefined N/A 30.33 1027 10 16 N/A
12:15 pm 12:15 Sunny 74 23.6 39 4.1 28 28 undefined N/A 30.30 1026 10 16 N/A
12:35 pm 12:35 Sunny 74 23.6 38 3.5 27 27 undefined N/A 30.30 1026 10 16 N/A
12:55 pm 12:55 Sunny 74 23.6 38 3.5 27 27 undefined N/A 30.30 1026 10 16 N/A
1:15 pm 13:15 Sunny 74 23.6 37 2.6 25 25 E 3 6 30.30 1026 10 16 N/A
1:35 pm 13:35 Sunny 77 25.1 34 1.2 21 21 undefined N/A 30.30 1026 10 16 N/A
1:55 pm 13:55 Sunny 77 25 32 -0.2 19 19 undefined N/A 30.30 1026 10 16 N/A
2:15 pm 14:15 Sunny 77 25.1 29 -1.6 17 17 undefined N/A 30.30 1026 10 16 N/A
2:35 pm 14:35 Sunny 77 25.1 26 -3.2 15 15 undefined N/A 30.30 1026 10 16 N/A
2:55 pm 14:55 Sunny 77 25.1 26 -3.2 15 15 undefined N/A 30.27 1025 10 16 N/A
3:15 pm 15:15 Sunny 77 25.1 24 -4.7 14 14 NNE 5 7 30.27 1025 10 16 N/A
3:35 pm 15:35 Sunny 77 25.1 29 -1.9 17 17 undefined N/A 30.27 1025 10 16 N/A
3:55 pm 15:55 Sunny 78 25.3 29 -1.5 17 17 SSE 7 11 30.27 1025 10 16 N/A
4:15 pm 16:15 Sunny 77 25.1 27 -2.8 16 16 undefined N/A 30.27 1025 10 16 N/A
4:35 pm 16:35 Sunny 78 25.3 24 -4.2 14 14 undefined N/A 30.27 1025 10 16 N/A
4:55 pm 16:55 Sunny 77 25.1 26 -3.4 15 15 undefined N/A 30.27 1025 10 16 N/A
5:15 pm 17:15 Sunny 78 25.3 29 -1.8 17 17 undefined N/A 30.27 1025 10 16 N/A
5:35 pm 17:35 Sunny 77 25.2 28 -2.4 16 16 S 7 11 30.27 1025 10 16 N/A
5:55 pm 17:55 Sunny 77 25.1 29 -1.6 17 17 SSE 9 15 30.27 1025 10 16 N/A
6:15 pm 18:15 Sunny 77 25.1 30 -1.3 17 17 SSE 8 13 30.27 1025 10 16 N/A
6:35 pm 18:35 Sunny 77 25.1 28 -2 17 17 S 7 11 30.27 1025 10 16 N/A
6:55 pm 18:55 Sunny 77 25.1 29 -1.9 17 17 undefined N/A 30.27 1025 10 16 N/A
7:15 pm 19:15 Sunny 77 25.1 30 -1.1 18 18 SSE 8 13 30.27 1025 10 16 N/A
7:35 pm 19:35 Sunny 74 23.6 30 -1.1 19 19 S 8 13 30.27 1025 10 16 N/A
7:55 pm 19:55 Sunny 74 23.6 34 1.1 23 23 SSE 5 7 30.27 1025 10 16 N/A
8:15 pm 20:15 Sunny 74 23.2 32 0.1 22 22 SSE 5 7 30.27 1025 10 16 N/A
8:35 pm 20:35 Clear 69 20.8 32 0.2 25 25 S 5 7 30.27 1025 10 16 N/A
8:55 pm 20:55 Clear 63 17 42 5.7 48 48 undefined N/A 30.33 1027 10 16 N/A
9:15 pm 21:15 Clear 60 15.3 46 7.8 61 61 undefined N/A 30.33 1027 10 16 N/A
9:35 pm 21:35 Clear 58 14.2 44 6.8 61 61 undefined N/A 30.33 1027 10 16 N/A
9:55 pm 21:55 Clear 57 13.8 43 6.3 61 61 undefined N/A 30.33 1027 10 16 N/A
10:15 pm 22:15 Clear 57 13.7 45 7.4 66 66 undefined N/A 30.33 1027 10 16 N/A
10:35 pm 22:35 Clear 55 12.5 43 6.1 65 65 undefined N/A 30.33 1027 10 16 N/A
10:55 pm 22:55 Clear 55 12.5 45 7 69 69 undefined N/A 30.33 1027 10 16 N/A
11:15 pm 23:15 Clear 55 12.5 44 6.8 68 68 undefined N/A 30.33 1027 10 16 N/A
11:35 pm 23:35 Clear 55 12.5 45 7 69 69 undefined N/A 30.33 1027 10 16 N/A
11:55 pm 23:55 Clear 55 12.5 47 8.1 75 75 undefined N/A 30.33 1027 10 16 N/A

Powered by AerisWeather